Change the Weather History Date:

Monday, January 22, 2001

  Actual Average Record
Temperature  
Mean Temperature 48 °F 51 °F  
Max Temperature 57 °F 57 °F 71 °F (1968)
Min Temperature 39 °F 45 °F 32 °F (1962)
Degree Days  
Heating Degree Days 17 14  
Month to date heating degree days 329  
Since 1 July heating degree days 1339  
Cooling Degree Days 0 0  
Month to date cooling degree days 0  
Year to date cooling degree days 0  
Moisture  
Dew Point 44 °F    
Average Humidity 84    
Maximum Humidity 96    
Minimum Humidity 67    
Precipitation  
Precipitation 0.00 in 0.12 in 1.55 in (1983)
Month to date precipitation 3.00  
Year to date precipitation 3.00  
Since 1 July precipitation 10.57  
Sea Level Pressure  
Sea Level Pressure 30.11 in    
Wind  
Wind Speed 4 mph (SSE)    
Max Wind Speed 8 mph    
Max Gust Speed -    
Visibility 7 miles    
Events      
T = Trace of Precipitation, MM = Missing Value Source: NWS Daily Summary

Daily Weather History Graph

Daily Weather History Graph

Search for Another Location

Airport or City:

Trip Planner

Search our weather history database for the weather conditions in past years. The results will help you decide how hot, cold, wet, or windy it might be!

Date:

Astronomy

Jan. 22, 2001 Rise Set
Actual Time 7:20 AM PST 5:22 PM PST
Civil Twilight 6:51 AM PST 5:50 PM PST
Nautical Twilight 6:20 AM PST 6:22 PM PST
Astronomical Twilight 5:48 AM PST 6:53 PM PST
Moon 6:06 AM PST (1/22) 3:55 PM PST (1/22)
Length of Visible Light 10h 58m
Length of Day
10h 02m
Waning Crescent, 3% of the Moon is Illuminated
Jan 22
Waning Crescent
Jan 24
New
Feb 1
First Quarter
Feb 7
Full
Feb 14
Last Quarter

Hourly Weather History & Observations

Time (PST) Temp. Windchill Dew Point Humidity Pressure Visibility Wind Dir Wind Speed Gust Speed Precip Events Conditions
12:56 AM 44.1 °F 40.8 °F 42.1 °F 93% 30.14 in 6.0 mi South 5.8 mph - N/A   Clear
1:56 AM 44.1 °F 40.8 °F 41.0 °F 89% 30.14 in 7.0 mi SSW 5.8 mph - N/A   Clear
2:56 AM 43.0 °F 40.3 °F 39.0 °F 86% 30.14 in 7.0 mi West 4.6 mph - N/A   Clear
3:56 AM 42.1 °F - 39.9 °F 92% 30.14 in 7.0 mi Calm Calm - N/A   Clear
4:56 AM 39.9 °F - 37.0 °F 89% 30.12 in 7.0 mi Calm Calm - N/A   Clear
5:56 AM 41.0 °F - 39.9 °F 96% 30.12 in 5.0 mi Calm Calm - N/A   Clear
6:56 AM 43.0 °F - 39.9 °F 89% 30.13 in 7.0 mi Calm Calm - N/A   Clear
7:56 AM 42.1 °F - 41.0 °F 96% 30.12 in 3.0 mi Calm Calm - N/A   Scattered Clouds
8:56 AM 45.0 °F 43.5 °F 43.0 °F 93% 30.13 in 3.0 mi SSE 3.5 mph - N/A   Scattered Clouds
9:56 AM 48.0 °F - 43.0 °F 83% 30.12 in 3.0 mi Calm Calm - N/A   Haze
10:56 AM 50.0 °F - 44.1 °F 80% 30.12 in 3.0 mi NNE 3.5 mph - N/A   Haze
11:56 AM 51.1 °F - 45.0 °F 80% 30.11 in 3.0 mi Calm Calm - N/A   Haze
12:56 PM 57.9 °F - 46.9 °F 67% 30.08 in 5.0 mi Variable 4.6 mph - N/A   Haze
1:56 PM 57.0 °F - 46.9 °F 69% 30.07 in 6.0 mi NE 6.9 mph - N/A   Haze
2:56 PM 55.9 °F - 50.0 °F 80% 30.06 in 8.0 mi North 4.6 mph - N/A   Scattered Clouds
3:56 PM 54.0 °F - 50.0 °F 86% 30.06 in 10.0 mi NNE 8.1 mph - N/A   Scattered Clouds
4:56 PM 53.1 °F - 48.0 °F 83% 30.08 in 10.0 mi NNW 4.6 mph - N/A   Scattered Clouds
5:56 PM 54.0 °F - 46.0 °F 75% 30.09 in 10.0 mi South 4.6 mph - N/A   Partly Cloudy
6:56 PM 52.0 °F - 44.1 °F 74% 30.10 in 10.0 mi South 5.8 mph - N/A   Clear
7:56 PM 53.1 °F - 45.0 °F 74% 30.10 in 10.0 mi South 3.5 mph - N/A   Clear
8:56 PM 51.1 °F - 45.0 °F 80% 30.11 in 10.0 mi SSW 8.1 mph - N/A   Clear
9:56 PM 51.1 °F - 46.0 °F 83% 30.10 in 10.0 mi East 4.6 mph - N/A   Clear
10:56 PM 50.0 °F - 46.0 °F 86% 30.10 in 10.0 mi ESE 5.8 mph - N/A   Scattered Clouds
11:56 PM 48.9 °F - 46.0 °F 90% 30.09 in 10.0 mi South 5.8 mph - N/A   Mostly Cloudy